Weather History for Juneau, WI

Change the Weather History Date:

Wednesday, January 29, 2014

  Actual Average Record
Temperature  
Mean Temperature 9 °F -  
Max Temperature 22 °F 25 °F 51 °F (2013)
Min Temperature -4 °F 14 °F -17 °F (1991)
Degree Days  
Heating Degree Days 56    
Moisture  
Dew Point -6 °F    
Average Humidity 55    
Maximum Humidity 65    
Minimum Humidity 44    
Precipitation  
Precipitation 0.00 in - - ()
Sea Level Pressure  
Sea Level Pressure 30.01 in    
Wind  
Wind Speed 13 mph (SSW)    
Max Wind Speed 22 mph    
Max Gust Speed 29 mph    
Visibility 10 miles    
Events      
Averages and records for this station are not official NWS values.
T = Trace of Precipitation, MM = Missing Value Source: NWS Daily Summary

Daily Weather History Graph

Daily Weather History Graph

Search for Another Location

Airport:

Trip Planner

Search our weather history database for the weather conditions in past years. The results will help you decide how hot, cold, wet, or windy it might be!

Date:

Astronomy

Jan. 29, 2014 Rise Set
Actual Time 7:13 AM CST 5:02 PM CST
Civil Twilight 6:43 AM CST 5:33 PM CST
Nautical Twilight 6:08 AM CST 6:07 PM CST
Astronomical Twilight 5:35 AM CST 6:41 PM CST
Moon 5:50 AM CST (1/29) 4:02 PM CST (1/29)
Length of Visible Light 10h 49m
Length of Day
9h 48m
Waning Crescent, 2% of the Moon is Illuminated
Jan 29
Waning Crescent
Jan 30
New
Feb 6
First Quarter
Feb 14
Full
Feb 22
Last Quarter

Hourly Weather History & Observations

Time (CST) Temp. Windchill Dew Point Humidity Pressure Visibility Wind Dir Wind Speed Gust Speed Precip Events Conditions
12:15 AM -4.4 °F -22.6 °F -15.0 °F 60% 30.11 in 10.0 mi WSW 11.5 mph - N/A   Clear
12:35 AM -4.2 °F -22.3 °F -14.8 °F 60% 30.10 in 10.0 mi SW 11.5 mph - N/A   Clear
12:55 AM -4.0 °F -23.0 °F -14.8 °F 60% 30.09 in 10.0 mi WSW 12.7 mph - N/A   Clear
1:15 AM -3.6 °F -24.0 °F -14.1 °F 61% 30.09 in 10.0 mi SW 15.0 mph - N/A   Clear
1:35 AM -3.5 °F -23.1 °F -13.9 °F 61% 30.09 in 10.0 mi SW 13.8 mph - N/A   Clear
1:55 AM -3.5 °F -22.3 °F -13.7 °F 62% 30.09 in 10.0 mi SW 12.7 mph - N/A   Clear
2:15 AM -3.5 °F -21.4 °F -13.7 °F 62% 30.09 in 10.0 mi SW 11.5 mph - N/A   Clear
2:35 AM -3.5 °F -20.5 °F -13.4 °F 63% 30.08 in 10.0 mi SW 10.4 mph - N/A   Clear
2:55 AM -3.8 °F -21.0 °F -13.7 °F 63% 30.08 in 10.0 mi WSW 10.4 mph - N/A   Clear
3:15 AM -4.0 °F -21.2 °F -13.5 °F 64% 30.07 in 10.0 mi SW 10.4 mph - N/A   Clear
3:35 AM -4.0 °F -23.7 °F -13.9 °F 63% 30.07 in 10.0 mi SW 13.8 mph - N/A   Clear
3:55 AM -4.0 °F -23.7 °F -13.7 °F 63% 30.06 in 10.0 mi SW 13.8 mph - N/A   Clear
4:15 AM -4.4 °F -22.6 °F -13.9 °F 64% 30.06 in 10.0 mi SW 11.5 mph - N/A   Clear
4:35 AM -4.5 °F -21.9 °F -13.9 °F 64% 30.06 in 10.0 mi SW 10.4 mph - N/A   Clear
4:55 AM -4.4 °F -21.6 °F -13.9 °F 64% 30.07 in 10.0 mi SW 10.4 mph - N/A   Clear
5:15 AM -4.5 °F -22.8 °F -13.9 °F 64% 30.07 in 10.0 mi SW 11.5 mph - N/A   Clear
5:35 AM -4.9 °F -23.2 °F -14.1 °F 65% 30.07 in 10.0 mi SW 11.5 mph - N/A   Clear
5:55 AM -4.0 °F -23.0 °F -13.5 °F 64% 30.07 in 10.0 mi SW 12.7 mph - N/A   Clear
6:15 AM -3.5 °F -23.1 °F -13.2 °F 63% 30.07 in 10.0 mi SW 13.8 mph - N/A   Clear
6:35 AM -3.3 °F -23.6 °F -13.0 °F 63% 30.07 in 10.0 mi SW 15.0 mph - N/A   Clear
6:55 AM -3.3 °F -22.8 °F -13.0 °F 63% 30.07 in 10.0 mi SW 13.8 mph - N/A   Clear
7:15 AM -3.3 °F -22.8 °F -13.0 °F 63% 30.08 in 10.0 mi SW 13.8 mph - N/A   Clear
7:35 AM -2.9 °F -23.1 °F -12.8 °F 63% 30.07 in 10.0 mi SW 15.0 mph - N/A   Clear
7:55 AM -2.7 °F -21.4 °F -12.6 °F 63% 30.08 in 10.0 mi SW 12.7 mph - N/A   Clear
8:15 AM -2.2 °F -21.5 °F -12.5 °F 62% 30.07 in 10.0 mi WSW 13.8 mph - N/A   Clear
8:35 AM -1.3 °F -19.6 °F -12.3 °F 60% 30.07 in 10.0 mi SW 12.7 mph - N/A   Clear
8:55 AM -0.4 °F -18.4 °F -11.7 °F 59% 30.07 in 10.0 mi WSW 12.7 mph - N/A   Clear
9:15 AM 0.9 °F -16.0 °F -11.2 °F 57% 30.08 in 10.0 mi SW 11.5 mph - N/A   Clear
9:35 AM 2.1 °F -14.4 °F -10.5 °F 56% 30.09 in 10.0 mi SW 11.5 mph - N/A   Clear
9:55 AM 3.0 °F -14.1 °F -9.9 °F 55% 30.08 in 10.0 mi SW 12.7 mph - N/A   Clear
10:15 AM 4.1 °F -12.7 °F -9.4 °F 54% 30.08 in 10.0 mi SW 12.7 mph - N/A   Clear
10:35 AM 5.7 °F -10.7 °F -8.3 °F 53% 30.08 in 10.0 mi SW 12.7 mph 19.6 mph N/A   Clear
10:55 AM 7.2 °F -11.4 °F -7.6 °F 51% 30.09 in 10.0 mi SW 17.3 mph - N/A   Clear
11:15 AM 8.4 °F -7.3 °F -7.1 °F 49% 30.08 in 10.0 mi SSW 12.7 mph - N/A   Clear
11:35 AM 10.0 °F -6.5 °F -6.9 °F 46% 30.07 in 10.0 mi SW 15.0 mph 23.0 mph N/A   Clear
11:55 AM 10.8 °F -5.0 °F -5.8 °F 47% 30.06 in 10.0 mi SW 13.8 mph - N/A   Clear
12:15 PM 11.5 °F -4.7 °F -6.0 °F 46% 30.05 in 10.0 mi SW 15.0 mph 18.4 mph N/A   Clear
12:35 PM 12.4 °F -4.6 °F -5.3 °F 45% 30.05 in 10.0 mi SW 17.3 mph - N/A   Clear
12:55 PM 13.8 °F 0.2 °F -4.4 °F 44% 30.04 in 10.0 mi SW 11.5 mph - N/A   Clear
1:15 PM 14.7 °F 0.7 °F -2.7 °F 46% 30.03 in 10.0 mi SSW 12.7 mph - N/A   Clear
1:35 PM 15.6 °F 2.5 °F -2.7 °F 44% 30.03 in 10.0 mi SW 11.5 mph - N/A   Clear
1:55 PM 16.2 °F 3.2 °F -2.2 °F 44% 30.02 in 10.0 mi SSW 11.5 mph - N/A   Clear
2:15 PM 16.3 °F 1.0 °F -1.8 °F 45% 30.02 in 10.0 mi SSW 16.1 mph - N/A   Clear
2:35 PM 16.9 °F 2.8 °F -1.8 °F 44% 30.01 in 10.0 mi SSW 13.8 mph - N/A   Clear
2:55 PM 17.2 °F 3.9 °F -1.1 °F 45% 30.01 in 10.0 mi SSW 12.7 mph - N/A   Clear
3:15 PM 17.4 °F 3.5 °F -0.9 °F 45% 30.00 in 10.0 mi South 13.8 mph - N/A   Clear
3:35 PM 16.7 °F 3.2 °F -2.0 °F 44% 29.99 in 10.0 mi South 12.7 mph - N/A   Clear
3:55 PM 16.5 °F 3.0 °F -1.5 °F 45% 29.98 in 10.0 mi South 12.7 mph - N/A   Clear
4:15 PM 16.2 °F 1.3 °F -1.7 °F 45% 29.98 in 10.0 mi South 15.0 mph - N/A   Clear
4:35 PM 15.8 °F 0.3 °F -1.5 °F 47% 29.98 in 10.0 mi South 16.1 mph - N/A   Clear
4:55 PM 15.6 °F 0.1 °F -1.5 °F 47% 29.98 in 10.0 mi South 16.1 mph 21.9 mph N/A   Clear
5:15 PM 14.4 °F -1.0 °F -1.3 °F 50% 29.97 in 10.0 mi South 15.0 mph - N/A   Clear
5:35 PM 14.5 °F -1.8 °F -1.1 °F 50% 29.96 in 10.0 mi South 17.3 mph - N/A   Clear
5:55 PM 13.8 °F 0.2 °F -0.9 °F 52% 29.95 in 10.0 mi South 11.5 mph - N/A   Clear
6:15 PM 14.0 °F -0.2 °F -0.4 °F 53% 29.95 in 10.0 mi South 12.7 mph - N/A   Clear
6:35 PM 14.4 °F 0.2 °F 0.3 °F 54% 29.94 in 10.0 mi SSE 12.7 mph - N/A   Clear
6:55 PM 13.8 °F -1.1 °F 0.9 °F 56% 29.93 in 10.0 mi SSE 13.8 mph - N/A   Clear
7:15 PM 13.6 °F -1.9 °F 1.8 °F 59% 29.92 in 10.0 mi SSE 15.0 mph - N/A   Clear
7:35 PM 14.0 °F -1.4 °F 3.4 °F 63% 29.91 in 10.0 mi SSE 15.0 mph - N/A   Clear
7:55 PM 14.7 °F -1.1 °F 4.1 °F 63% 29.90 in 10.0 mi SSE 16.1 mph - N/A   Clear
8:15 PM 15.8 °F 0.3 °F 4.5 °F 61% 29.90 in 10.0 mi South 16.1 mph 19.6 mph N/A   Clear
8:35 PM 16.7 °F 1.5 °F 4.5 °F 59% 29.88 in 10.0 mi South 16.1 mph 20.7 mph N/A   Clear
8:55 PM 17.4 °F 1.5 °F 4.6 °F 57% 29.87 in 10.0 mi South 18.4 mph 23.0 mph N/A   Clear
9:15 PM 18.1 °F 2.4 °F 4.5 °F 55% 29.87 in 10.0 mi South 18.4 mph 24.2 mph N/A   Clear
9:35 PM 18.7 °F 3.6 °F 4.5 °F 54% 29.87 in 10.0 mi South 17.3 mph - N/A   Clear
9:55 PM 19.2 °F 3.8 °F 4.1 °F 52% 29.87 in 10.0 mi South 18.4 mph 23.0 mph N/A   Clear
10:15 PM 20.1 °F 5.4 °F 4.1 °F 50% 29.86 in 10.0 mi South 17.3 mph - N/A   Clear
10:35 PM 21.0 °F 6.6 °F 4.5 °F 49% 29.86 in 10.0 mi South 17.3 mph 23.0 mph N/A   Scattered Clouds
10:55 PM 21.7 °F 5.9 °F 4.6 °F 48% 29.86 in 10.0 mi South 21.9 mph 26.5 mph N/A   Clear
11:15 PM 22.5 °F 6.9 °F 5.0 °F 47% 29.85 in 10.0 mi South 21.9 mph 28.8 mph N/A   Clear
11:35 PM 22.1 °F 6.4 °F 5.5 °F 49% 29.84 in 10.0 mi South 21.9 mph - N/A   Clear
11:55 PM 22.1 °F 6.4 °F 5.7 °F 49% 29.83 in 10.0 mi South 21.9 mph 26.5 mph N/A   Clear